DateTimeUTC,F1_A11,F1_S11,BsB_S11,BsG_S11,BsR_S11,BbsB_S11,BbsG_S11,BbsR_S11,BaB_A11,BaG_A11,BaR_A11,Tu_S11,T_S11,Uu_S11,U_S11,P_S11,T1_A11
2021-10-09T19:00:00Z,00000200,21000000,,,,,,,0000.35,0000.07,0000.78,17.5,25.0,,00.0,0669.2,31.0
2021-10-09T19:01:00Z,00000200,21000000,,,,,,,-000.17,0000.07,-000.16,17.5,25.0,,00.0,0669.2,31.0
2021-10-09T19:02:00Z,00000200,21000000,,,,,,,0000.08,0000.21,0000.01,17.5,25.0,,00.0,0669.2,31.0
2021-10-09T19:03:00Z,00000200,61000000,,,,,,,0000.78,0000.24,0000.35,17.5,25.0,,00.0,0669.2,31.0
2021-10-09T19:04:00Z,00000200,41000000,0000.59,0000.86,0000.81,0000.64,-000.09,0000.32,0000.45,0000.71,0000.84,18.0,24.9,,00.0,0670.2,31.0
2021-10-09T19:05:00Z,00000200,01000000,0001.05,0001.11,0000.60,0000.16,-000.02,0000.14,0000.63,0000.40,-000.16,18.1,24.9,,00.0,0670.3,31.0
2021-10-09T19:06:00Z,00000200,01000000,0000.89,0000.69,0000.72,0000.56,-000.00,-000.21,0000.49,0000.54,0000.27,18.1,24.9,,00.0,0670.3,31.0
2021-10-09T19:07:00Z,00000200,01000000,0000.79,0000.90,0000.25,0000.24,0000.27,-000.01,0000.05,0000.08,0000.18,18.2,24.9,,00.0,0670.3,31.0
2021-10-09T19:08:00Z,00000200,01000000,0000.77,0000.78,0000.51,0000.45,0000.24,-000.06,-000.21,-000.33,-000.20,18.3,24.9,,00.0,0670.3,31.0
2021-10-09T19:09:00Z,00000200,01000000,0001.33,0000.52,0000.31,0000.08,0000.27,0000.27,0000.63,0000.24,0000.12,18.3,24.9,,00.0,0670.3,31.0
2021-10-09T19:10:00Z,00000200,01000000,0000.07,0000.86,0000.39,0000.50,0000.35,-000.30,-000.20,0000.29,0000.14,18.2,24.9,,00.0,0670.3,31.0
2021-10-09T19:11:00Z,00000200,01000000,0000.96,0000.51,0000.55,0000.29,-000.07,0000.14,0000.23,-000.17,-000.43,18.2,24.9,,00.0,0670.3,31.0
2021-10-09T19:12:00Z,00000200,01000000,0000.55,0000.50,0000.35,0000.57,0000.05,-000.01,0000.34,0000.47,0000.83,18.1,24.8,,00.0,0670.3,31.0
2021-10-09T19:13:00Z,00000200,01000000,0000.90,0000.68,0000.42,0000.49,-000.08,-000.25,0000.21,0000.24,-000.10,18.0,24.8,,00.0,0670.3,31.0
2021-10-09T19:14:00Z,00000200,01000000,0001.01,0000.92,0000.52,0000.06,0000.40,0000.15,0000.91,0000.92,0000.97,18.0,24.8,,00.0,0670.3,31.0
2021-10-09T19:15:00Z,00000200,01000000,0000.23,0000.67,0000.37,0000.31,0000.02,-000.28,0000.37,0000.46,-000.04,18.0,24.8,,00.0,0670.3,31.0
2021-10-09T19:16:00Z,00000200,01000000,0000.25,0000.96,0000.49,-000.25,0000.12,0000.30,-000.04,-000.01,0000.25,18.1,24.8,,00.0,0670.3,31.0
2021-10-09T19:17:00Z,00000200,01000000,0000.45,0001.02,0000.31,-000.01,0000.17,-000.49,0000.01,-000.31,-000.16,18.1,24.8,,00.0,0670.3,31.0
2021-10-09T19:18:00Z,00000200,01000000,0001.33,0001.02,0000.38,0000.34,-000.11,0000.11,0000.28,0000.36,0000.10,18.2,24.8,,00.0,0670.3,31.0
2021-10-09T19:19:00Z,00000200,01000000,0001.22,0001.10,0000.51,0000.66,0000.13,-000.13,0000.30,0000.40,0000.41,18.2,24.8,,00.0,0670.3,31.0
2021-10-09T19:20:00Z,00000200,01000000,0001.35,0000.79,0000.48,0000.57,0000.10,-000.16,0000.26,-000.34,-000.08,18.3,24.9,,00.0,0670.3,31.0
2021-10-09T19:21:00Z,00000200,01000000,0001.14,0000.55,0000.46,0000.48,-000.05,0000.02,-000.25,-000.19,0000.12,18.3,24.9,,00.0,0670.3,31.0
2021-10-09T19:22:00Z,00000200,01000000,0000.66,0000.60,0000.18,-000.45,0000.16,-000.26,-000.29,-000.06,-000.42,18.2,24.9,,00.0,0670.3,31.0
2021-10-09T19:23:00Z,00000200,01000000,0001.15,0000.75,0000.41,0001.27,-000.05,-000.19,0000.15,0000.23,0000.25,18.1,24.8,,00.0,0670.3,31.0
2021-10-09T19:24:00Z,00000200,01000000,0000.47,0000.38,0000.16,0000.53,0000.06,-000.13,0000.61,0000.42,0000.44,18.0,24.8,,00.0,0670.3,31.0
2021-10-09T19:25:00Z,00000200,01000000,0000.44,0000.89,0000.28,0000.11,0000.39,0000.33,0000.57,0000.55,-000.07,18.0,24.7,,00.0,0670.3,31.0
2021-10-09T19:26:00Z,00000200,01000000,0000.18,0000.70,0000.46,0000.27,0000.20,-000.11,0000.16,0000.06,0000.40,17.9,24.7,,00.0,0670.3,31.0
2021-10-09T19:27:00Z,00000200,01000000,0000.43,0000.54,0000.73,-000.06,0000.09,0000.03,0000.65,0000.31,-000.04,17.8,24.6,,00.0,0670.3,30.9
2021-10-09T19:28:00Z,00000200,01000000,0002.03,0000.61,0000.40,0000.39,0000.28,-000.22,0000.61,0000.51,0000.64,17.8,24.6,,00.0,0670.2,30.9
2021-10-09T19:29:00Z,00000200,01000000,0001.36,0000.38,0000.60,0000.60,0000.24,0000.03,0000.84,0001.33,0000.73,17.7,24.6,,00.0,0670.2,30.9
2021-10-09T19:30:00Z,00000200,01000000,0000.49,0000.73,0000.43,-000.20,-000.04,-000.08,0001.62,0001.47,0001.37,17.8,24.6,,00.0,0670.2,30.9
2021-10-09T19:31:00Z,00000200,01000000,0000.74,0000.64,-000.05,0000.71,-000.09,-000.31,0000.39,0000.14,0000.08,17.8,24.6,,00.0,0670.2,31.0
2021-10-09T19:32:00Z,00000200,01000000,0000.93,0000.75,0000.37,0000.15,0000.17,-000.15,-001.28,-000.84,-000.94,17.9,24.6,,00.0,0670.2,31.0
2021-10-09T19:33:00Z,00000200,01000000,0000.80,0000.40,0000.49,0000.20,0000.25,0000.15,0000.96,0001.01,0000.85,17.9,24.6,,00.0,0670.2,31.0
2021-10-09T19:34:00Z,00000200,01000000,0000.90,0000.30,0000.21,0000.37,0000.05,-000.16,0000.60,0000.31,0000.31,18.0,24.7,,00.0,0670.3,31.0
2021-10-09T19:35:00Z,00000200,01000000,0001.02,0000.94,0000.77,0000.74,0000.32,0000.04,-000.01,-000.03,0000.04,18.1,24.7,,00.0,0670.3,31.0
2021-10-09T19:36:00Z,00000200,01000000,0000.89,0000.79,0000.74,0000.74,0000.19,0000.04,-000.12,-000.32,0000.02,18.1,24.7,,00.0,0670.3,31.0
2021-10-09T19:37:00Z,00000200,01000000,0000.70,0000.99,0000.42,-000.18,0000.10,0000.22,-000.23,0000.43,0000.10,18.2,24.7,,00.0,0670.3,31.0
2021-10-09T19:38:00Z,00000200,01000000,0001.16,0000.64,0000.36,0000.43,-000.27,-000.13,-000.31,-000.70,-000.55,18.2,24.8,,00.0,0670.3,31.0
2021-10-09T19:39:00Z,00000200,01000000,0000.92,0000.78,0000.55,-000.20,0000.04,-000.12,0000.12,0000.48,0000.37,18.3,24.8,,00.0,0670.3,31.0
2021-10-09T19:40:00Z,00000200,01000000,0000.83,0000.75,0000.48,0000.66,0000.08,-000.06,-000.09,-000.54,-000.37,18.2,24.8,,00.0,0670.3,31.0
2021-10-09T19:41:00Z,00000200,01000000,0000.50,0000.56,0000.60,-000.59,0000.04,-000.20,0000.21,0000.26,0000.13,18.1,24.8,,00.0,0670.3,31.0
2021-10-09T19:42:00Z,00000200,01000000,0000.36,0000.51,0000.60,0000.22,0000.29,-000.06,0000.52,0000.11,-000.25,18.1,24.7,,00.0,0670.3,31.0
2021-10-09T19:43:00Z,00000200,01000000,0000.73,0000.66,0000.56,0000.17,-000.07,0000.13,0000.36,0000.20,0000.79,18.0,24.7,,00.0,0670.3,31.0
2021-10-09T19:44:00Z,00000200,01000000,0000.72,0000.79,0000.82,0000.20,0000.17,0000.22,0000.54,0000.42,-000.07,18.0,24.6,,00.0,0670.3,31.0
2021-10-09T19:45:00Z,00000200,01000000,0000.64,0000.61,0000.44,0000.49,0000.07,0000.02,0000.40,0000.74,0000.52,18.0,24.7,,00.0,0670.3,31.0
2021-10-09T19:46:00Z,00000200,01000000,0001.60,0000.63,0000.65,-000.08,0000.27,0000.05,0000.36,0000.02,0000.50,18.0,24.6,,00.0,0670.3,31.0
2021-10-09T19:47:00Z,00000200,01000000,0000.26,0000.94,0000.32,0000.21,0000.33,-000.00,-000.16,0000.36,0000.01,18.1,24.7,,00.0,0670.3,31.0
2021-10-09T19:48:00Z,00000200,01000000,0000.98,0000.59,0000.39,-000.05,-000.00,0000.09,0000.46,0000.18,0000.20,18.1,24.7,,00.0,0670.3,31.0
2021-10-09T19:49:00Z,00000200,01000000,0001.21,0000.84,0000.41,0000.34,0000.12,-000.00,0000.24,0000.25,0000.40,18.2,24.7,,00.0,0670.3,31.0
2021-10-09T19:50:00Z,00000200,01000000,0000.93,0000.79,0000.31,0000.16,0000.13,-000.15,0000.19,0000.05,-000.29,18.3,24.8,,00.0,0670.3,31.0
2021-10-09T19:51:00Z,00000200,01000000,0001.11,0000.75,0000.18,-000.04,0000.30,0000.03,0000.02,0000.34,0000.37,18.3,24.8,,00.0,0670.3,31.0
2021-10-09T19:52:00Z,00000200,01000000,0000.48,0000.86,0000.11,0000.99,0000.02,-000.33,0000.42,0000.17,-000.06,18.4,24.8,,00.0,0670.3,31.0
2021-10-09T19:53:00Z,00000200,01000000,0001.09,0000.87,0000.47,0000.66,0000.13,0000.07,-000.02,0000.36,0000.07,18.4,24.8,,00.0,0670.3,31.0
2021-10-09T19:54:00Z,00000200,01000000,0000.53,0000.39,0000.54,0000.21,-000.12,-000.02,-000.13,-000.06,-000.02,18.3,24.8,,00.0,0670.3,31.0
2021-10-09T19:55:00Z,00000200,01000000,0001.01,0000.76,0000.69,0000.13,0000.18,0000.24,0000.77,-000.09,0000.29,18.2,24.8,,00.0,0670.3,31.0
2021-10-09T19:56:00Z,00000200,01000000,0000.88,0000.52,0000.43,0000.02,-000.01,0000.27,0000.71,0001.09,0000.53,18.1,24.7,,00.0,0670.3,31.0
2021-10-09T19:57:00Z,00000200,41000000,,,,,,,-000.42,-000.20,-000.41,18.1,24.7,,00.0,0670.3,31.0
2021-10-09T19:58:00Z,00000200,61000000,,,,,,,0000.71,0000.43,0000.97,17.7,24.8,,00.0,0669.3,31.0
2021-10-09T19:59:00Z,00000200,21000000,,,,,,,0000.35,0000.24,-000.02,17.6,24.9,,00.0,0669.3,31.0
